TimeEDT,TemperatureF,Dew PointF,Humidity,Sea Level PressureIn,VisibilityMPH,Wind Direction,Wind SpeedMPH,Gust SpeedMPH,PrecipitationIn,Events,Conditions,WindDirDegrees,DateUTC
12:15 AM,68.0,53.6,60,29.96,10.0,SSW,6.9,-,N/A,,Scattered Clouds,210,2013-04-11 04:15:00
12:35 AM,67.6,53.8,61,29.97,10.0,SW,5.8,-,N/A,,Clear,230,2013-04-11 04:35:00
12:55 AM,61.0,53.4,76,29.97,10.0,WSW,4.6,-,N/A,,Scattered Clouds,250,2013-04-11 04:55:00
1:15 AM,61.7,53.2,74,29.97,10.0,West,4.6,-,N/A,,Scattered Clouds,260,2013-04-11 05:15:00
1:35 AM,60.8,53.4,77,29.97,10.0,West,3.5,-,N/A,,Mostly Cloudy,280,2013-04-11 05:35:00
1:55 AM,59.0,52.9,80,29.97,10.0,West,3.5,-,N/A,,Mostly Cloudy,260,2013-04-11 05:55:00
2:15 AM,60.3,53.1,77,29.97,10.0,SW,3.5,-,N/A,,Scattered Clouds,220,2013-04-11 06:15:00
2:35 AM,60.8,52.9,75,29.96,10.0,WNW,3.5,-,N/A,,Clear,290,2013-04-11 06:35:00
2:55 AM,58.6,52.5,80,29.96,10.0,Calm,Calm,-,N/A,,Scattered Clouds,0,2013-04-11 06:55:00
3:15 AM,60.4,53.1,77,29.95,10.0,Calm,Calm,-,N/A,,Mostly Cloudy,0,2013-04-11 07:15:00
3:35 AM,60.3,53.6,79,29.95,10.0,Calm,Calm,-,N/A,,Overcast,0,2013-04-11 07:35:00
3:55 AM,61.2,53.8,77,29.95,10.0,Calm,Calm,-,N/A,,Overcast,0,2013-04-11 07:55:00
4:15 AM,60.8,53.8,78,29.94,10.0,Calm,Calm,-,N/A,,Overcast,0,2013-04-11 08:15:00
4:35 AM,60.6,53.4,77,29.94,10.0,Calm,Calm,-,N/A,,Overcast,0,2013-04-11 08:35:00
4:55 AM,59.7,54.0,81,29.95,10.0,Calm,Calm,-,N/A,,Overcast,0,2013-04-11 08:55:00
5:15 AM,60.3,53.8,79,29.94,10.0,Calm,Calm,-,N/A,,Overcast,0,2013-04-11 09:15:00
5:35 AM,59.5,54.0,82,29.94,10.0,Calm,Calm,-,N/A,,Overcast,0,2013-04-11 09:35:00
5:55 AM,59.4,53.8,82,29.95,10.0,Calm,Calm,-,N/A,,Mostly Cloudy,0,2013-04-11 09:55:00
6:15 AM,59.2,54.0,83,29.95,10.0,Calm,Calm,-,N/A,,Overcast,0,2013-04-11 10:15:00
6:35 AM,58.6,53.8,84,29.94,10.0,Calm,Calm,-,N/A,,Overcast,0,2013-04-11 10:35:00
6:55 AM,59.5,53.1,79,29.95,10.0,Calm,Calm,-,N/A,,Mostly Cloudy,0,2013-04-11 10:55:00
7:15 AM,59.4,53.4,81,29.96,10.0,Calm,Calm,-,N/A,,Mostly Cloudy,0,2013-04-11 11:15:00
7:35 AM,58.5,53.1,82,29.96,10.0,Calm,Calm,-,N/A,,Scattered Clouds,0,2013-04-11 11:35:00
7:55 AM,58.6,53.6,83,29.96,10.0,Calm,Calm,-,N/A,,Mostly Cloudy,0,2013-04-11 11:55:00
8:15 AM,60.6,54.0,79,29.96,10.0,Calm,Calm,-,N/A,,Overcast,0,2013-04-11 12:15:00
8:35 AM,60.8,54.0,78,29.96,10.0,Calm,Calm,-,N/A,,Overcast,0,2013-04-11 12:35:00
8:55 AM,62.4,56.1,80,29.96,10.0,Calm,Calm,-,N/A,,Overcast,0,2013-04-11 12:55:00
9:15 AM,63.1,55.4,76,29.95,10.0,WSW,3.5,-,N/A,,Mostly Cloudy,250,2013-04-11 13:15:00
9:35 AM,64.4,56.1,74,29.95,10.0,West,4.6,-,N/A,,Mostly Cloudy,280,2013-04-11 13:35:00
9:55 AM,67.5,55.6,66,29.95,10.0,SSW,3.5,-,N/A,,Mostly Cloudy,210,2013-04-11 13:55:00
10:15 AM,70.7,53.4,54,29.95,10.0,SW,3.5,-,N/A,,Mostly Cloudy,220,2013-04-11 14:15:00
10:35 AM,69.4,52.7,55,29.95,10.0,SW,10.4,16.1,N/A,,Overcast,230,2013-04-11 14:35:00
10:55 AM,69.6,50.7,51,29.95,10.0,WSW,13.8,19.6,N/A,,Mostly Cloudy,240,2013-04-11 14:55:00
11:15 AM,70.3,52.0,52,29.95,10.0,WSW,9.2,17.3,N/A,,Scattered Clouds,250,2013-04-11 15:15:00
11:35 AM,70.2,52.7,54,29.94,10.0,WSW,13.8,18.4,N/A,,Scattered Clouds,240,2013-04-11 15:35:00
11:55 AM,73.0,54.0,51,29.93,10.0,West,10.4,-,N/A,,Scattered Clouds,260,2013-04-11 15:55:00
12:15 PM,74.3,53.2,48,29.92,10.0,West,8.1,-,N/A,,Scattered Clouds,280,2013-04-11 16:15:00
12:35 PM,75.2,53.8,47,29.90,10.0,SE,8.1,-,N/A,,Clear,130,2013-04-11 16:35:00
1:15 PM,76.1,53.6,45,29.88,10.0,WSW,15.0,21.9,N/A,,Mostly Cloudy,240,2013-04-11 17:15:00
1:35 PM,78.4,53.6,42,29.87,10.0,SSW,11.5,16.1,N/A,,Mostly Cloudy,210,2013-04-11 17:35:00
1:55 PM,74.7,53.6,48,29.87,10.0,South,11.5,18.4,N/A,,Mostly Cloudy,180,2013-04-11 17:55:00
2:15 PM,73.4,53.6,50,29.86,10.0,South,15.0,20.7,N/A,,Overcast,170,2013-04-11 18:15:00
2:35 PM,73.9,53.6,49,29.86,10.0,SW,15.0,19.6,N/A,,Overcast,230,2013-04-11 18:35:00
2:55 PM,74.1,55.6,52,29.85,10.0,SSW,8.1,-,N/A,,Overcast,210,2013-04-11 18:55:00
3:15 PM,75.0,55.8,51,29.83,10.0,South,9.2,17.3,N/A,,Overcast,170,2013-04-11 19:15:00
3:35 PM,74.7,55.9,52,29.82,10.0,SSW,10.4,-,N/A,,Overcast,200,2013-04-11 19:35:00
3:55 PM,75.2,56.5,52,29.79,10.0,South,5.8,-,N/A,,Mostly Cloudy,170,2013-04-11 19:55:00
4:15 PM,73.2,55.9,55,29.78,10.0,SSE,5.8,19.6,N/A,,Mostly Cloudy,150,2013-04-11 20:15:00
4:35 PM,72.5,55.9,56,29.77,10.0,South,5.8,18.4,N/A,,Overcast,190,2013-04-11 20:35:00
4:55 PM,72.9,55.9,55,29.77,10.0,SSW,11.5,17.3,N/A,,Overcast,200,2013-04-11 20:55:00
5:15 PM,73.6,56.7,55,29.76,10.0,SSW,9.2,17.3,N/A,,Mostly Cloudy,200,2013-04-11 21:15:00
5:35 PM,73.4,56.8,56,29.76,10.0,SE,9.2,-,N/A,,Mostly Cloudy,140,2013-04-11 21:35:00
5:55 PM,72.3,57.6,60,29.75,10.0,Calm,Calm,-,N/A,,Overcast,0,2013-04-11 21:55:00
6:15 PM,71.4,58.3,63,29.75,10.0,Calm,Calm,-,N/A,,Overcast,0,2013-04-11 22:15:00
6:35 PM,71.8,58.6,63,29.73,10.0,Calm,Calm,-,N/A,,Overcast,0,2013-04-11 22:35:00
6:55 PM,71.4,58.6,64,29.72,10.0,Calm,Calm,-,N/A,,Mostly Cloudy,0,2013-04-11 22:55:00
7:15 PM,71.8,58.8,64,29.74,10.0,South,11.5,18.4,N/A,,Overcast,180,2013-04-11 23:15:00
7:35 PM,71.8,58.8,64,29.72,10.0,SSW,4.6,-,N/A,,Overcast,210,2013-04-11 23:35:00
7:55 PM,69.8,60.3,72,29.71,10.0,SSW,5.8,-,N/A,Rain,Light Rain,210,2013-04-11 23:55:00
8:15 PM,69.3,60.8,74,29.70,10.0,SW,5.8,-,N/A,Rain,Light Rain,230,2013-04-12 00:15:00
8:35 PM,68.0,61.5,80,29.71,10.0,Calm,Calm,-,N/A,Rain,Light Rain,0,2013-04-12 00:35:00
8:55 PM,67.6,60.1,77,29.72,10.0,SW,8.1,-,N/A,Rain,Rain,230,2013-04-12 00:55:00
9:15 PM,66.0,61.2,84,29.71,7.0,WNW,4.6,-,N/A,Rain,Light Rain,300,2013-04-12 01:15:00
9:35 PM,64.4,62.6,94,29.73,3.0,West,11.5,-,N/A,Rain,Heavy Rain,260,2013-04-12 01:35:00
9:55 PM,63.5,61.3,93,29.72,2.5,North,5.8,-,N/A,Rain,Rain,350,2013-04-12 01:55:00
10:15 PM,63.0,60.6,92,29.78,3.0,WSW,13.8,24.2,N/A,Rain,Heavy Rain,250,2013-04-12 02:15:00
10:35 PM,59.9,58.3,94,29.76,7.0,NW,3.5,-,N/A,Rain,Heavy Rain,320,2013-04-12 02:35:00
10:55 PM,60.3,58.6,94,29.77,5.0,Calm,Calm,-,N/A,Rain,Rain,0,2013-04-12 02:55:00
11:15 PM,59.9,59.0,97,29.77,5.0,East,3.5,-,N/A,Rain,Rain,90,2013-04-12 03:15:00
11:35 PM,59.9,59.0,97,29.77,4.0,Calm,Calm,-,N/A,Rain,Rain,0,2013-04-12 03:35:00
11:55 PM,59.9,59.0,97,29.76,5.0,ENE,3.5,-,N/A,Rain,Rain,60,2013-04-12 03:55:00